STARLINK-32721

Last updated on Wed Jan 29 2025 00:02:04 GMT+0000 (Coordinated Universal Time)

1 62438U 24251G 25028.37312206 -.00000536 00000+0 -15742-5 0 9997 2 62438 53.1609 67.1281 0001438 129.2754 230.8383 15.49322863 5702
UTC large
Height (km)
Speed (km/s)
/
Latitude / Longitude
Inclination (degrees)
Orbital Period (minutes)
Azimuth
Elevation
Range (km)
Doppler Factor

Next 0 passes for location: London (51.5072 / 0.1276)

Sorry there are no passes over London.